Regional Weather Roundup
Issued by NWS

Home | Current Version | Previous Version | Text Only | Print | Product List | Glossary Off
Versions: 1 2 3 4 5 6 7 8 9 10 11 12 13 14 15 16 17 18 19 20 21 22 23 24 25 26 27 28 29 30 31 32 33 34 35 36 37 38 39 40 41 42 43 44 45 46 47 48 49 50

000
ASUS43 KOAX 010802
RWRNE

WEATHER ROUNDUP FOR NEBRASKA
NATIONAL WEATHER SERVICE OMAHA NE
300 AM CDT WED JUL 01 2015

NOTES: SATELLITE DATA IS BEING USED TO AUGMENT CLOUD COVER ABOVE
       12000 FEET.
       "FAIR" INDICATES FEW OR NO CLOUDS BELOW 12,000 FEET WITH NO
       SIGNIFICANT WEATHER AND/OR OBSTRUCTIONS TO VISIBILITY.

  * THESE STATIONS DO NOT REPORT WEATHER SUCH AS RAIN...SNOW OR FOG.

NEZ001>004-019>022-054>056-010900-
NEBRASKA PANHANDLE

CITY           SKY/WX    TMP DP  RH WIND       PRES   REMARKS
SCOTTSBLUFF    CLEAR     66  58  75 NW6       30.00F
ALLIANCE       PTCLDY    67  61  81 W10       29.97F
CHADRON        PTCLDY    68  65  90 CALM      29.97R
SIDNEY         MOCLDY    66  57  72 NW10      30.00F
$$

NEZ057>060-069>072-079>082-010900-
SOUTHWEST NEBRASKA

CITY           SKY/WX    TMP DP  RH WIND       PRES   REMARKS
NORTH PLATTE   CLEAR     68  64  87 E9        29.86S
IMPERIAL       CLOUDY    79  59  50 N13G23    29.87F
MCCOOK         CLOUDY    76  60  57 N5        29.82S
$$

NEZ005>010-023>029-035>040-094-010900-
NORTH CENTRAL NEBRASKA

CITY           SKY/WX    TMP DP  RH WIND       PRES   REMARKS
VALENTINE      CLEAR     63  60  90 NE6       29.89F
AINSWORTH      PTCLDY    63  61  94 S5        29.89F
BROKEN BOW     PTCLDY    65  62  90 E6        29.85F
ORD            PTCLDY    67  61  81 SE7       29.84F
$$

NEZ041-046>049-061>064-073>077-083>087-010900-
SOUTH CENTRAL NEBRASKA

CITY           SKY/WX    TMP DP  RH WIND       PRES   REMARKS
GRAND ISLAND   MOCLDY    70  61  73 SE13G26   29.82F
HASTINGS       MOCLDY    70  63  78 SE15G26   29.82F
KEARNEY *      CLEAR     68  61  77 SE10      29.83F
$$

NEZ011>018-030>034-042>045-010900-
NORTHEAST NEBRASKA

CITY           SKY/WX    TMP DP  RH WIND       PRES   REMARKS
NORFOLK        MOCLDY    66  64  93 E7        29.85F FOG
COLUMBUS *     CLOUDY   N/A N/A N/A E9        29.83F
FREMONT        CLOUDY    68  65  92 SE5       29.86F
TEKAMAH        MOCLDY    68  66  93 SE5       29.85F FOG
$$

NEZ050>053-065>068-078-088>093-010900-
SOUTHEAST NEBRASKA

CITY           SKY/WX    TMP DP  RH WIND       PRES   REMARKS
LINCOLN        LGT RAIN  69  65  86 SE17      29.83F
OMAHA EPPLEY   CLOUDY    68  66  93 E3        29.85F
FALLS CITY     RAIN      69  66  90 E14       29.91S FOG
$$

NEZ044-045-051>053-067-010900-
OMAHA AREA

CITY           SKY/WX    TMP DP  RH WIND       PRES   REMARKS
OMAHA EPPLEY   CLOUDY    68  66  93 E3        29.85F
FREMONT        CLOUDY    68  65  92 SE5       29.86F
OFFUTT AFB     CLOUDY    67  66  95 E6        29.84F
$$



USA.gov is the U.S. government's official web portal to all federal, state and local government web resources and services.